[[{"header":{"parameterUnit":"m.s-1","parameterCategory":2,"la1":30.2991,"la2":30.254,"lo1":-89.0895,"lo2":-89.0444,"dy":0.0017,"dx":0.0017,"nx":28,"ny":28,"refTime":"2023-07-19T09:00:00:Z","depth":"0","parameterNumber":2,"parameterNumberName":"U-component_of_CURRENTS"},"data":[0,0,0,0,0,0,0,0,0,0,0,0,0,0,0,0,0,0,0,0,0,0,0,0,0,0,0,0,0,0,0,0,0,0,0,0,0,0,0,0,0,0,0,0,0,0,0,0,0,0,0,0,0,0,0,0,0,0,-0.0994,-0.0995,0,-0.1021,-0.102,-0.102,-0.1056,-0.1057,-0.1058,-0.106,-0.1121,-0.1122,-0.1122,0,0,0,0,0,0,0,0,0,0,0,0,0,-0.0904,-0.0905,-0.0994,-0.0995,-0.0996,-0.1021,-0.102,-0.102,-0.1056,-0.1057,-0.1059,-0.106,-0.1121,-0.1122,-0.1122,0,0,0,0,0,0,0,0,0,0,0,0,0,-0.0932,-0.0906,-0.0993,-0.1021,-0.1025,-0.1021,-0.102,-0.102,-0.1055,-0.1057,-0.1059,-0.1061,-0.1121,-0.1121,-0.1122,-0.1091,0,0,-0.1125,-0.1125,0,0,0,0,0,0,0,0,-0.093,-0.0934,-0.1016,-0.1019,-0.1023,-0.1043,-0.1012,-0.1048,-0.1055,-0.1037,-0.106,-0.1062,-0.1101,-0.1104,-0.1095,-0.1094,-0.1096,-0.1125,-0.1125,-0.1125,-0.1126,0,0,0,0,0,0,0,-0.0928,-0.0933,-0.0997,-0.1017,-0.1022,-0.1009,-0.1015,-0.1018,-0.1054,-0.1038,-0.1043,-0.1056,-0.1103,-0.1094,-0.1097,-0.1097,-0.1125,-0.1125,-0.1126,-0.1126,-0.1162,-0.1162,0,0,0,0,0,0,-0.0941,-0.0932,-0.0997,-0.0999,-0.0988,-0.101,-0.1016,-0.1029,-0.1053,-0.106,-0.1054,-0.1058,-0.1091,-0.1096,-0.1099,-0.1095,-0.1125,-0.1126,-0.1127,-0.1161,-0.1162,-0.1162,0,0,0,0,0,0,-0.0938,-0.0946,-0.0996,-0.0971,-0.0978,-0.1011,-0.1024,-0.1029,-0.1028,-0.1066,-0.1073,-0.1051,-0.1093,-0.1098,-0.1121,-0.1097,-0.1126,-0.1127,-0.1161,-0.1161,-0.1162,-0.1067,0,0,0,0,0,0,-0.0936,-0.0945,-0.0939,-0.0972,-0.098,-0.0998,-0.1023,-0.1028,-0.1036,-0.1041,-0.1065,-0.1072,-0.1095,-0.112,-0.1122,-0.1098,-0.1128,-0.116,-0.1161,-0.1162,-0.1069,-0.1064,-0.106,0,0,0,0,0,-0.0932,-0.091,-0.0939,-0.0946,-0.0978,-0.0998,-0.0999,-0.1025,-0.1034,-0.1029,-0.1059,-0.1072,-0.1128,-0.112,-0.1123,-0.1099,-0.1159,-0.1161,-0.1162,-0.1071,-0.1065,-0.106,0,0,0,0,0,0,-0.083,-0.0914,-0.0945,-0.0941,-0.0977,-0.1007,-0.0996,-0.1018,-0.1031,-0.1037,-0.1069,-0.1078,-0.1092,-0.1116,-0.1107,-0.1119,-0.1148,-0.115,-0.1079,-0.1073,-0.1069,-0.1029,-0.1128,0,0,0,0,0,-0.0817,-0.0833,-0.0909,-0.0891,-0.0923,-0.0959,-0.0965,-0.0991,-0.1017,-0.1023,-0.1045,-0.1073,-0.1093,-0.1102,-0.1126,-0.1119,-0.1097,-0.1113,-0.1108,-0.1104,-0.1078,-0.1027,-0.1012,-0.1166,-0.1166,-0.1166,0,0,-0.0759,-0.081,-0.0811,-0.0873,-0.0901,-0.092,-0.0965,-0.0978,-0.0974,-0.1028,-0.1017,-0.1055,-0.1093,-0.1096,-0.1103,-0.1112,-0.105,-0.1105,-0.11,-0.1076,-0.1026,-0.101,-0.0996,-0.1167,-0.1166,-0.1166,0,0,-0.0663,-0.0718,-0.0717,-0.0759,-0.0826,-0.0868,-0.0877,-0.0927,-0.0938,-0.0941,-0.0988,-0.1006,-0.1029,-0.1048,-0.106,-0.1041,-0.1031,-0.1068,-0.0996,-0.0947,-0.0932,-0.0919,-0.0862,-0.0844,-0.1058,-0.1058,-0.1058,0,-0.0597,-0.0617,-0.0706,-0.0725,-0.0746,-0.0846,-0.0843,-0.0866,-0.0906,-0.0911,-0.0931,-0.096,-0.0993,-0.0989,-0.0992,-0.1021,-0.0996,-0.1007,-0.0934,-0.0921,-0.0908,-0.0853,-0.0835,-0.1054,-0.1054,-0.1055,-0.1055,0,-0.052,-0.0541,-0.054,-0.0617,-0.0642,-0.0658,-0.0737,-0.0763,-0.0794,-0.0814,-0.082,-0.0858,-0.0872,-0.0895,-0.0931,-0.0884,-0.0893,-0.0932,-0.0932,-0.0886,-0.0833,-0.0815,-0.1047,-0.1049,-0.105,-0.1051,0,0,-0.0389,-0.0476,-0.0479,-0.0503,-0.0598,-0.0614,-0.0632,-0.068,-0.0682,-0.071,-0.0675,-0.0716,-0.0743,-0.076,-0.0812,-0.0776,-0.0673,-0.0812,-0.0812,-0.0725,-0.0548,-0.0506,-0.0483,-0.0695,-0.0692,-0.0689,-0.0539,0,-0.0316,-0.0321,-0.0384,-0.038,-0.0405,-0.0504,-0.0502,-0.055,-0.0596,-0.0594,-0.0628,-0.0623,-0.0691,-0.0692,-0.0664,-0.0689,-0.0625,-0.0709,-0.0632,-0.0629,-0.0572,-0.0461,-0.0378,-0.0233,-0.0522,-0.0519,-0.0517,0,-0.025,-0.027,-0.0245,-0.03,-0.0317,-0.0317,-0.0371,-0.0385,-0.0432,-0.0454,-0.0466,-0.0503,-0.0482,-0.0531,-0.0482,-0.0535,-0.0515,-0.0518,-0.0513,-0.0489,-0.0553,-0.0332,-0.019,-0.0248,-0.049,-0.0492,-0.0494,0,-0.0143,-0.0186,-0.0161,-0.0178,-0.024,-0.0235,-0.0273,-0.033,-0.0345,-0.0363,-0.036,-0.0358,-0.034,-0.0321,-0.0342,-0.0399,-0.0261,-0.0344,-0.0274,-0.0272,-0.019,-0.0186,-0.0064,-0.0246,-0.0247,-0.0247,-0.0247,0,-0.0071,-0.0064,-0.0111,-0.0094,-0.0078,-0.014,-0.0128,-0.018,-0.021,-0.0211,-0.027,-0.0255,-0.0283,-0.0241,-0.026,-0.0193,-0.0185,-0.021,-0.021,-0.0159,-0.0153,-0.0196,-0.0357,-0.0241,-0.0243,-0.0244,-0.0245,0,0.0017,-0.0005,0.0014,-0.0013,-0.0026,-0.0012,-0.0066,-0.0069,-0.0106,-0.0103,-0.0095,-0.0136,-0.0093,-0.01,-0.0055,-0.0072,-0.0046,0.0001,0.0069,0.0075,0.0052,-0.011,-0.0041,-0.0023,0.0107,0.0109,0.0111,0,0.0046,0.0079,0.0084,0.0091,0.0076,0.0068,0.0056,-0.0004,-0.0021,-0.0044,-0.0026,0.0016,0.0024,0.0118,0.013,0.0182,0.0067,0.0284,0.0189,0.012,-0.006,-0.0165,-0.0163,0.0335,0.0339,0.0342,0.0344,0,0.0115,0.0142,0.0156,0.0177,0.0181,0.0162,0.0136,0.0141,0.008,0.0082,0.0092,0.011,0.0182,0.0244,0.0318,0.0353,0.0222,0.0343,0.0271,0.0147,0.0046,0.0041,0.0151,0.037,0.0367,0.0366,0.0364,0.0363,0.0168,0.0194,0.024,0.0245,0.0245,0.0251,0.0259,0.0227,0.023,0.0227,0.0211,0.0257,0.0317,0.041,0.0452,0.0539,0.0367,0.0506,0.0326,0.0241,0.0229,0.0403,0.0605,0.0603,0.0602,0.0601,0.0601,0,0.0216,0.0254,0.0286,0.0316,0.0327,0.0307,0.0302,0.0316,0.0334,0.0331,0.0341,0.0428,0.0505,0.056,0.0608,0.0529,0.0526,0.0467,0.0342,0.0354,0.0554,0.0537,0.0738,0.0738,0.0738,0.0738,0.0738,0.0738,0.0254,0.0308,0.0325,0.0381,0.0389,0.0407,0.0415,0.0438,0.0448,0.0485,0.0517,0.0538,0.0529,0.0377,0.0368,0.0391,0.0265,0.0217,0.0121,0.0221,0.0211,0.0202,0.0161,0.0278,0.0277,0.008,0.0076,0.0074]},{"header":{"parameterUnit":"m.s-1","parameterCategory":2,"la1":30.2991,"la2":30.254,"lo1":-89.0895,"lo2":-89.0444,"dy":0.0017,"dx":0.0017,"nx":28,"ny":28,"refTime":"2023-07-19T09:00:00:Z","depth":"0","parameterNumber":3,"parameterNumberName":"V-component_of_CURRENTS"},"data":[0,0,0,0,0,0,0,0,0,0,0,0,0,0,0,0,0,0,0,0,0,0,0,0,0,0,0,0,0,0,0,0,0,0,0,0,0,0,0,0,0,0,0,0,0,0,0,0,0,0,0,0,0,0,0,0,0,0,-0.0687,-0.0687,0,-0.0696,-0.0696,-0.0696,-0.0692,-0.0691,-0.0691,-0.0691,-0.064,-0.0639,-0.0638,0,0,0,0,0,0,0,0,0,0,0,0,0,-0.0684,-0.0684,-0.0687,-0.0687,-0.0687,-0.0696,-0.0696,-0.0696,-0.0692,-0.0691,-0.0691,-0.0691,-0.0641,-0.0639,-0.0638,0,0,0,0,0,0,0,0,0,0,0,0,0,-0.0689,-0.0684,-0.0687,-0.0685,-0.0685,-0.0696,-0.0696,-0.0696,-0.0692,-0.0691,-0.0691,-0.069,-0.0641,-0.064,-0.0638,-0.0637,0,0,-0.0633,-0.0633,0,0,0,0,0,0,0,0,-0.0689,-0.0689,-0.0686,-0.0686,-0.0685,-0.0692,-0.0677,-0.0673,-0.0692,-0.069,-0.0691,-0.069,-0.0652,-0.0649,-0.0654,-0.0635,-0.0633,-0.0633,-0.0632,-0.0631,-0.0631,0,0,0,0,0,0,0,-0.0689,-0.0689,-0.0691,-0.0686,-0.0686,-0.069,-0.069,-0.0676,-0.0673,-0.069,-0.069,-0.069,-0.0651,-0.0656,-0.0653,-0.0632,-0.0633,-0.0632,-0.0631,-0.063,-0.0584,-0.0584,0,0,0,0,0,0,-0.0686,-0.0689,-0.0691,-0.0692,-0.0685,-0.0691,-0.0691,-0.0691,-0.0674,-0.0672,-0.069,-0.0689,-0.0658,-0.0654,-0.0651,-0.0654,-0.0631,-0.063,-0.0629,-0.0585,-0.0584,-0.0584,0,0,0,0,0,0,-0.0685,-0.0686,-0.0691,-0.069,-0.0691,-0.0691,-0.0691,-0.0691,-0.0688,-0.0675,-0.0671,-0.0686,-0.0658,-0.0653,-0.0654,-0.0652,-0.0629,-0.0628,-0.0585,-0.0584,-0.0584,-0.0658,0,0,0,0,0,0,-0.0685,-0.0686,-0.0681,-0.069,-0.069,-0.0693,-0.0691,-0.0691,-0.0689,-0.0688,-0.067,-0.0666,-0.0657,-0.0657,-0.0652,-0.0649,-0.0627,-0.0585,-0.0585,-0.0584,-0.0656,-0.066,-0.0664,0,0,0,0,0,-0.0685,-0.069,-0.0681,-0.0681,-0.0685,-0.0693,-0.0694,-0.0694,-0.0689,-0.0689,-0.0692,-0.0666,-0.0649,-0.0656,-0.0651,-0.0647,-0.0585,-0.0585,-0.0584,-0.0654,-0.0659,-0.0663,0,0,0,0,0,0,-0.0691,-0.069,-0.068,-0.0685,-0.0683,-0.0692,-0.0691,-0.0691,-0.0694,-0.0686,-0.0679,-0.0675,-0.0672,-0.0646,-0.0654,-0.0628,-0.0605,-0.0604,-0.066,-0.0664,-0.0668,-0.0668,-0.0625,0,0,0,0,0,-0.0688,-0.0692,-0.0686,-0.0692,-0.0684,-0.0684,-0.0685,-0.0682,-0.0686,-0.0686,-0.069,-0.0676,-0.0666,-0.0657,-0.0645,-0.0638,-0.0605,-0.0624,-0.0628,-0.0632,-0.0625,-0.0584,-0.0584,-0.0582,-0.0582,-0.0582,0,0,-0.0686,-0.0693,-0.069,-0.0693,-0.0688,-0.0685,-0.0684,-0.068,-0.0693,-0.0679,-0.0704,-0.0695,-0.0668,-0.067,-0.0662,-0.0648,-0.0617,-0.0631,-0.0635,-0.0626,-0.0583,-0.0583,-0.0584,-0.0582,-0.0582,-0.0582,0,0,-0.07,-0.0692,-0.0694,-0.0689,-0.0682,-0.0684,-0.068,-0.0687,-0.07,-0.0719,-0.0712,-0.0708,-0.0701,-0.0691,-0.0679,-0.069,-0.0643,-0.0673,-0.0692,-0.0653,-0.0653,-0.0652,-0.0625,-0.0621,-0.0671,-0.0671,-0.0671,0,-0.0697,-0.0697,-0.0697,-0.0697,-0.0695,-0.0682,-0.068,-0.0693,-0.0711,-0.0728,-0.0729,-0.0721,-0.071,-0.0697,-0.0712,-0.07,-0.0672,-0.0684,-0.066,-0.0658,-0.0657,-0.0628,-0.0623,-0.0674,-0.0674,-0.0674,-0.0673,0,-0.0708,-0.0698,-0.0699,-0.0695,-0.0702,-0.0692,-0.0703,-0.0713,-0.0728,-0.0749,-0.0758,-0.0751,-0.0736,-0.0735,-0.0735,-0.0713,-0.0696,-0.0677,-0.0654,-0.0662,-0.0631,-0.0625,-0.0679,-0.0678,-0.0677,-0.0676,0,0,-0.0707,-0.0705,-0.0699,-0.0693,-0.0692,-0.0698,-0.0718,-0.0736,-0.0743,-0.0767,-0.0777,-0.0786,-0.0775,-0.0758,-0.0742,-0.0723,-0.0709,-0.0703,-0.0699,-0.0687,-0.0627,-0.0683,-0.0681,-0.0686,-0.0685,-0.0685,-0.0617,0,-0.0702,-0.0704,-0.0713,-0.0708,-0.0697,-0.0701,-0.0731,-0.0752,-0.0766,-0.0777,-0.0772,-0.0769,-0.0783,-0.0761,-0.075,-0.0715,-0.0692,-0.0729,-0.061,-0.0606,-0.0665,-0.0676,-0.0608,-0.0547,-0.061,-0.0609,-0.0608,0,-0.0699,-0.0697,-0.0701,-0.0708,-0.0706,-0.0715,-0.0734,-0.0757,-0.0772,-0.0785,-0.0774,-0.0759,-0.0741,-0.0734,-0.0685,-0.0707,-0.0671,-0.0648,-0.0643,-0.0662,-0.0651,-0.0544,-0.0533,-0.0311,-0.0598,-0.0599,-0.06,0,-0.0697,-0.0686,-0.0695,-0.0692,-0.0705,-0.0718,-0.073,-0.076,-0.0779,-0.0767,-0.0757,-0.0738,-0.0702,-0.0668,-0.0649,-0.0649,-0.0592,-0.0572,-0.0585,-0.0588,-0.049,-0.0487,-0.0257,-0.0516,-0.0516,-0.0517,-0.0517,0,-0.0688,-0.0678,-0.0688,-0.0686,-0.0697,-0.0717,-0.0736,-0.0746,-0.0751,-0.0762,-0.0749,-0.0723,-0.0682,-0.0651,-0.0632,-0.0612,-0.0571,-0.0591,-0.0575,-0.0517,-0.0518,-0.0288,-0.0172,-0.0514,-0.0515,-0.0515,-0.0516,0,-0.0668,-0.0681,-0.0681,-0.0693,-0.0698,-0.0708,-0.073,-0.0737,-0.0746,-0.0737,-0.0724,-0.0698,-0.0671,-0.0651,-0.0588,-0.0587,-0.0443,-0.0553,-0.0508,-0.049,-0.0319,-0.0212,-0.0047,0.0069,-0.0543,-0.0544,-0.0545,0,-0.0651,-0.0653,-0.0679,-0.0686,-0.0686,-0.0698,-0.0713,-0.0735,-0.0738,-0.0726,-0.0714,-0.0678,-0.0665,-0.0629,-0.0622,-0.06,-0.043,-0.0506,-0.0502,-0.0302,-0.0168,-0.0139,-0.0049,-0.0387,-0.0386,-0.0386,-0.0386,0,-0.0605,-0.0632,-0.0638,-0.0658,-0.0675,-0.0681,-0.0692,-0.0697,-0.0718,-0.0714,-0.07,-0.0682,-0.0665,-0.0625,-0.0616,-0.0581,-0.0324,-0.05,-0.0266,-0.0015,0.0014,0.013,-0.0447,-0.0382,-0.0382,-0.0383,-0.0383,-0.0383,-0.0569,-0.0576,-0.061,-0.0618,-0.0639,-0.0647,-0.0649,-0.0658,-0.0669,-0.0654,-0.0678,-0.0654,-0.0573,-0.057,-0.0511,-0.0283,-0.031,-0.0154,-0.0037,-0.0027,0.0081,-0.0527,-0.0476,-0.0477,-0.0478,-0.0478,-0.0479,0,-0.0534,-0.0552,-0.0559,-0.0587,-0.0598,-0.0617,-0.0623,-0.0617,-0.0618,-0.0622,-0.0627,-0.0554,-0.0408,-0.0273,-0.0036,0.018,0.0249,0.0344,0.0496,0.0568,0.008,0.0086,0.0229,0.0229,0.0229,0.0228,0.0228,0.0228,-0.0521,-0.0535,-0.0542,-0.054,-0.0555,-0.0554,-0.0556,-0.0544,-0.054,-0.0505,-0.0482,-0.0474,-0.0209,0.0305,0.0717,0.078,0.1049,0.0997,0.1119,0.0898,0.0863,0.0831,0.0866,0.117,0.1171,0.1597,0.1602,0.1606]}],[{"header":{"parameterUnit":"m.s-1","parameterCategory":2,"la1":30.2991,"la2":30.254,"lo1":-89.0895,"lo2":-89.0444,"dy":0.0017,"dx":0.0017,"nx":28,"ny":28,"refTime":"2023-07-19T09:00:00:Z","depth":"2","parameterNumber":2,"parameterNumberName":"U-component_of_CURRENTS"},"data":[0,0,0,0,0,0,0,0,0,0,0,0,0,0,0,0,0,0,0,0,0,0,0,0,0,0,0,0,0,0,0,0,0,0,0,0,0,0,0,0,0,0,0,0,0,0,0,0,0,0,0,0,0,0,0,0,0,0,-0.2389,-0.239,0,-0.2445,-0.2446,-0.2446,-0.2536,-0.2538,-0.254,-0.2542,-0.2681,-0.2682,-0.2684,0,0,0,0,0,0,0,0,0,0,0,0,0,-0.2388,-0.2387,-0.2389,-0.239,-0.2391,-0.2445,-0.2446,-0.2446,-0.2536,-0.2538,-0.2541,-0.2543,-0.268,-0.2682,-0.2685,0,0,0,0,0,0,0,0,0,0,0,0,0,-0.2409,-0.2387,-0.2389,-0.2444,-0.245,-0.2445,-0.2446,-0.2446,-0.2536,-0.2538,-0.2541,-0.2544,-0.2679,-0.2682,-0.2685,-0.2648,0,0,-0.2694,-0.2695,0,0,0,0,0,0,0,0,-0.2407,-0.2408,-0.2435,-0.244,-0.2447,-0.2489,-0.2496,-0.2518,-0.2535,-0.2501,-0.2542,-0.2545,-0.2623,-0.2631,-0.2631,-0.2654,-0.266,-0.2694,-0.2696,-0.2697,-0.2698,0,0,0,0,0,0,0,-0.2406,-0.2407,-0.2409,-0.2436,-0.2443,-0.2476,-0.2481,-0.25,-0.2546,-0.2504,-0.2511,-0.252,-0.2627,-0.2628,-0.2635,-0.2662,-0.2694,-0.2697,-0.2699,-0.27,-0.2762,-0.2762,0,0,0,0,0,0,-0.2398,-0.2404,-0.2408,-0.2411,-0.2436,-0.2473,-0.2479,-0.247,-0.2544,-0.2558,-0.2517,-0.2524,-0.2621,-0.2632,-0.2641,-0.2722,-0.2697,-0.27,-0.2702,-0.2762,-0.2762,-0.2762,0,0,0,0,0,0,-0.2397,-0.2397,-0.2405,-0.2412,-0.2416,-0.247,-0.246,-0.247,-0.2526,-0.2554,-0.2569,-0.2569,-0.2624,-0.2637,-0.272,-0.2724,-0.2701,-0.2704,-0.2762,-0.2762,-0.2762,-0.2807,0,0,0,0,0,0,-0.2397,-0.2396,-0.2414,-0.2411,-0.2415,-0.2419,-0.2458,-0.2469,-0.2524,-0.2535,-0.2602,-0.2614,-0.2627,-0.2716,-0.2723,-0.2728,-0.2706,-0.2762,-0.2762,-0.2762,-0.2806,-0.2809,-0.2811,0,0,0,0,0,-0.2396,-0.2416,-0.2414,-0.2417,-0.2429,-0.242,-0.2425,-0.2472,-0.2525,-0.2536,-0.2613,-0.2615,-0.2717,-0.272,-0.2728,-0.2733,-0.2762,-0.2762,-0.2762,-0.2805,-0.2808,-0.2811,0,0,0,0,0,0,-0.2421,-0.2427,-0.2425,-0.2444,-0.2435,-0.2437,-0.2483,-0.2496,-0.2561,-0.2595,-0.2639,-0.2656,-0.2715,-0.2719,-0.2721,-0.2744,-0.2728,-0.273,-0.2758,-0.2761,-0.2764,-0.2761,-0.2709,0,0,0,0,0,-0.2428,-0.2454,-0.2434,-0.245,-0.2463,-0.2477,-0.2496,-0.2498,-0.2541,-0.2575,-0.2629,-0.2676,-0.2704,-0.2739,-0.2754,-0.279,-0.272,-0.2787,-0.279,-0.2792,-0.2792,-0.268,-0.2672,-0.2761,-0.2761,-0.2761,0,0,-0.2445,-0.2451,-0.2468,-0.246,-0.248,-0.2471,-0.2498,-0.2519,-0.2543,-0.2578,-0.2678,-0.2693,-0.2715,-0.275,-0.2774,-0.2771,-0.2727,-0.2792,-0.2794,-0.2793,-0.2679,-0.267,-0.2662,-0.276,-0.276,-0.276,0,0,-0.2463,-0.2497,-0.2512,-0.251,-0.2517,-0.2507,-0.2521,-0.2533,-0.2594,-0.2647,-0.2677,-0.2714,-0.2774,-0.278,-0.2794,-0.2819,-0.2739,-0.281,-0.2835,-0.2727,-0.2718,-0.271,-0.2594,-0.2575,-0.2818,-0.2818,-0.2818,0,-0.2476,-0.2492,-0.2512,-0.2513,-0.2538,-0.2529,-0.2534,-0.2566,-0.2605,-0.2669,-0.2691,-0.275,-0.2783,-0.2805,-0.2821,-0.2826,-0.2739,-0.283,-0.2729,-0.2719,-0.2709,-0.2593,-0.2571,-0.282,-0.282,-0.282,-0.282,0,-0.2485,-0.2509,-0.2533,-0.253,-0.2539,-0.2555,-0.2571,-0.2624,-0.2691,-0.2707,-0.2776,-0.279,-0.2815,-0.2821,-0.2849,-0.2799,-0.2749,-0.2738,-0.272,-0.2703,-0.2582,-0.2558,-0.2823,-0.2823,-0.2822,-0.2821,0,0,-0.247,-0.253,-0.2532,-0.2578,-0.2567,-0.2584,-0.2638,-0.269,-0.2736,-0.2778,-0.2818,-0.288,-0.2858,-0.2867,-0.2857,-0.2792,-0.2668,-0.2748,-0.2741,-0.2633,-0.2399,-0.226,-0.222,-0.2624,-0.262,-0.2618,-0.2335,0,-0.2475,-0.2507,-0.2525,-0.2576,-0.2613,-0.2653,-0.2696,-0.2737,-0.2775,-0.2799,-0.283,-0.2831,-0.2879,-0.2854,-0.2804,-0.2702,-0.2609,-0.2744,-0.2433,-0.2423,-0.2301,-0.219,-0.2178,-0.1915,-0.2312,-0.2308,-0.2305,0,-0.2468,-0.2504,-0.2564,-0.2659,-0.2682,-0.2703,-0.2796,-0.2808,-0.2825,-0.2847,-0.2834,-0.2814,-0.277,-0.2762,-0.2588,-0.2663,-0.2536,-0.2447,-0.2432,-0.2271,-0.224,-0.1998,-0.1857,-0.2265,-0.2268,-0.2271,-0.2274,0,-0.2486,-0.2545,-0.2628,-0.2656,-0.2724,-0.2809,-0.2825,-0.2846,-0.2849,-0.2821,-0.2772,-0.2737,-0.2661,-0.2538,-0.2415,-0.2472,-0.2154,-0.2201,-0.1946,-0.1935,-0.1848,-0.1833,-0.201,-0.201,-0.2011,-0.2012,-0.2013,0,-0.2496,-0.2568,-0.2668,-0.2725,-0.28,-0.2838,-0.2866,-0.2891,-0.2829,-0.2757,-0.2763,-0.2655,-0.2591,-0.2434,-0.2335,-0.2052,-0.2081,-0.1906,-0.1835,-0.1861,-0.1852,-0.2114,-0.2129,-0.2001,-0.2004,-0.2006,-0.2008,0,-0.2501,-0.2565,-0.2687,-0.2807,-0.282,-0.2877,-0.2845,-0.2819,-0.279,-0.2662,-0.2637,-0.2551,-0.2346,-0.2242,-0.1995,-0.1906,-0.1681,-0.1563,-0.1597,-0.1534,-0.1557,-0.1579,-0.1248,-0.124,-0.1234,-0.1228,-0.1224,0,-0.2516,-0.2575,-0.2726,-0.2732,-0.2795,-0.2826,-0.2784,-0.2782,-0.271,-0.2575,-0.2493,-0.2309,-0.213,-0.1745,-0.1552,-0.1286,-0.1414,-0.1118,-0.1233,-0.1505,-0.147,-0.1503,-0.1532,-0.1135,-0.113,-0.1126,-0.1123,0,-0.2543,-0.2626,-0.2715,-0.2687,-0.2704,-0.2668,-0.2633,-0.2587,-0.2527,-0.2436,-0.2251,-0.2106,-0.1744,-0.1476,-0.1156,-0.1004,-0.1181,-0.1021,-0.1239,-0.1337,-0.1376,-0.1351,-0.1388,-0.1087,-0.1091,-0.1094,-0.1096,-0.1097,-0.2585,-0.2604,-0.2667,-0.2634,-0.2591,-0.2496,-0.2428,-0.2377,-0.2267,-0.2081,-0.2016,-0.1754,-0.1617,-0.1099,-0.0896,-0.0715,-0.0777,-0.0794,-0.0816,-0.084,-0.0883,-0.091,-0.0541,-0.0541,-0.0541,-0.0542,-0.0542,0,-0.2566,-0.2544,-0.2535,-0.25,-0.2385,-0.2378,-0.2272,-0.2175,-0.2022,-0.1855,-0.1662,-0.1364,-0.1145,-0.0984,-0.0659,-0.0495,-0.056,-0.047,-0.067,-0.0703,-0.0733,-0.0782,-0.0406,-0.0405,-0.0405,-0.0404,0,0,-0.2538,-0.2513,-0.2473,-0.2294,-0.2209,-0.2017,-0.1934,-0.1819,-0.1686,-0.1402,-0.1232,-0.1177,-0.1073,-0.0859,-0.0698,-0.0539,-0.0624,-0.0468,-0.0586,-0.0866,-0.0897,-0.0919,-0.1028,0,0,0,0,0]},{"header":{"parameterUnit":"m.s-1","parameterCategory":2,"la1":30.2991,"la2":30.254,"lo1":-89.0895,"lo2":-89.0444,"dy":0.0017,"dx":0.0017,"nx":28,"ny":28,"refTime":"2023-07-19T09:00:00:Z","depth":"2","parameterNumber":3,"parameterNumberName":"V-component_of_CURRENTS"},"data":[0,0,0,0,0,0,0,0,0,0,0,0,0,0,0,0,0,0,0,0,0,0,0,0,0,0,0,0,0,0,0,0,0,0,0,0,0,0,0,0,0,0,0,0,0,0,0,0,0,0,0,0,0,0,0,0,0,0,-0.008,-0.0078,0,0.0039,0.004,0.0042,0.017,0.0171,0.0173,0.0175,0.0518,0.0525,0.0532,0,0,0,0,0,0,0,0,0,0,0,0,0,-0.0169,-0.0168,-0.008,-0.0078,-0.0077,0.0039,0.004,0.0042,0.0169,0.0171,0.0174,0.0176,0.0515,0.0524,0.0533,0,0,0,0,0,0,0,0,0,0,0,0,0,-0.0098,-0.0168,-0.008,0.0,0.0009,0.0038,0.004,0.0043,0.0169,0.0171,0.0174,0.0177,0.0512,0.0523,0.0534,0.0549,0,0,0.0568,0.0573,0,0,0,0,0,0,0,0,-0.0102,-0.0095,-0.0013,-0.0005,0.0004,0.0092,0.0135,0.0223,0.0168,0.0108,0.0175,0.0178,0.0394,0.0415,0.0428,0.0565,0.0579,0.0569,0.0576,0.0581,0.0584,0,0,0,0,0,0,0,-0.0108,-0.0099,-0.0033,-0.0012,-0.0001,0.004,0.0053,0.0151,0.0239,0.0114,0.0123,0.0135,0.0401,0.0417,0.0438,0.0584,0.0569,0.0579,0.0586,0.059,0.0904,0.0905,0,0,0,0,0,0,-0.0127,-0.0104,-0.0036,-0.0029,-0.0043,0.0039,0.0054,0.0061,0.0233,0.026,0.0133,0.0141,0.0397,0.0425,0.0451,0.0569,0.0581,0.0591,0.0598,0.0902,0.0904,0.0906,0,0,0,0,0,0,-0.0129,-0.0122,-0.0041,-0.0064,-0.005,0.0038,0.0045,0.0062,0.0105,0.0245,0.0277,0.0161,0.04,0.0435,0.0577,0.0581,0.0596,0.0606,0.09,0.0903,0.0905,0.0749,0,0,0,0,0,0,-0.0133,-0.0124,-0.0124,-0.0065,-0.005,-0.0015,0.0043,0.0063,0.0106,0.0119,0.028,0.0312,0.0405,0.056,0.0588,0.0597,0.0615,0.0898,0.0901,0.0904,0.0753,0.0746,0.0741,0,0,0,0,0,-0.0136,-0.0138,-0.0125,-0.0116,-0.0053,-0.0016,-0.0004,0.0068,0.0105,0.0117,0.0245,0.0309,0.06,0.057,0.0603,0.0614,0.0897,0.09,0.0904,0.0755,0.0748,0.0741,0,0,0,0,0,0,-0.0169,-0.0124,-0.0108,-0.0094,-0.0059,0.0007,0.0027,0.0066,0.0167,0.0192,0.033,0.0371,0.0491,0.0585,0.0548,0.072,0.0758,0.0769,0.0634,0.0628,0.0622,0.0608,0.0624,0,0,0,0,0,-0.0184,-0.0176,-0.0129,-0.012,-0.0103,-0.0043,-0.0018,0.0021,0.0112,0.0157,0.0273,0.0408,0.0523,0.0602,0.0712,0.0807,0.0853,0.0841,0.0835,0.0829,0.0844,0.0905,0.0904,0.0918,0.0918,0.0918,0,0,-0.0198,-0.0171,-0.0167,-0.0128,-0.0092,-0.0083,-0.0019,0.0012,0.0041,0.0182,0.028,0.0387,0.0545,0.0649,0.0711,0.0734,0.0843,0.0834,0.0827,0.0846,0.0908,0.0906,0.0904,0.0921,0.092,0.092,0,0,-0.0225,-0.0195,-0.02,-0.0177,-0.0136,-0.0105,-0.0098,-0.003,0.0031,0.012,0.0231,0.0348,0.0524,0.0629,0.0708,0.0744,0.0801,0.078,0.0748,0.0804,0.0802,0.0801,0.0806,0.0807,0.0785,0.0785,0.0785,0,-0.0243,-0.0241,-0.0196,-0.0194,-0.0178,-0.0119,-0.0124,-0.0068,0.0041,0.0115,0.0145,0.0399,0.0515,0.0654,0.0669,0.0727,0.0752,0.0746,0.0789,0.079,0.0792,0.0798,0.0801,0.0778,0.0779,0.0779,0.078,0,-0.0272,-0.0272,-0.0269,-0.0254,-0.0236,-0.0227,-0.0162,-0.0106,-0.0033,0.0045,0.0197,0.0336,0.0492,0.0537,0.0621,0.0701,0.0708,0.0755,0.0785,0.0779,0.0788,0.0793,0.0768,0.077,0.0772,0.0774,0,0,-0.0306,-0.0294,-0.0294,-0.0288,-0.0265,-0.0242,-0.0198,-0.0113,-0.0044,0.0061,0.0151,0.0336,0.0407,0.0501,0.0597,0.066,0.0667,0.0706,0.0713,0.0672,0.0749,0.0728,0.0732,0.0708,0.0709,0.0711,0.0729,0,-0.034,-0.0363,-0.0341,-0.0349,-0.0353,-0.0285,-0.024,-0.0152,-0.0054,0.0048,0.0196,0.0306,0.0392,0.0443,0.052,0.0641,0.0685,0.0656,0.0799,0.0803,0.0753,0.0741,0.0797,0.0817,0.0734,0.0735,0.0736,0,-0.0375,-0.0383,-0.0411,-0.0374,-0.0362,-0.0349,-0.0248,-0.0201,-0.005,0.0027,0.0144,0.0243,0.0359,0.0407,0.0585,0.0557,0.0644,0.0725,0.0728,0.0777,0.0795,0.0828,0.0831,0.0746,0.0746,0.0745,0.0744,0,-0.042,-0.0419,-0.0438,-0.0433,-0.0393,-0.0351,-0.0312,-0.0187,-0.0121,-0.0008,0.0035,0.0188,0.0253,0.0382,0.0532,0.0558,0.0695,0.0751,0.0811,0.0808,0.0925,0.093,0.0865,0.0865,0.0865,0.0865,0.0865,0,-0.0464,-0.0471,-0.0448,-0.0454,-0.0424,-0.0384,-0.032,-0.0247,-0.0159,-0.008,0.0011,0.0078,0.0253,0.0355,0.0489,0.0644,0.0655,0.0803,0.0823,0.0868,0.0868,0.0885,0.0887,0.0866,0.0866,0.0866,0.0865,0,-0.0519,-0.0512,-0.0518,-0.0476,-0.0451,-0.0429,-0.0354,-0.0299,-0.0231,-0.0151,-0.0139,-0.0003,0.0112,0.0255,0.0454,0.0588,0.0728,0.0779,0.0784,0.0805,0.0813,0.0808,0.0862,0.0861,0.0861,0.0861,0.0861,0,-0.0553,-0.0571,-0.0542,-0.0527,-0.0502,-0.0461,-0.0421,-0.0343,-0.0289,-0.0179,-0.0142,-0.0047,0.0046,0.0266,0.0548,0.0735,0.0685,0.0832,0.0919,0.0804,0.0819,0.0814,0.0809,0.0994,0.0995,0.0996,0.0997,0,-0.0613,-0.06,-0.0599,-0.0579,-0.0539,-0.0503,-0.0438,-0.0416,-0.0314,-0.0267,-0.0182,-0.0126,0.0147,0.04,0.0621,0.0746,0.0803,0.0853,0.076,0.0973,0.0928,0.0942,0.0934,0.1003,0.1003,0.1002,0.1002,0.1001,-0.0641,-0.0653,-0.0641,-0.0615,-0.0577,-0.0533,-0.05,-0.0441,-0.0389,-0.0271,-0.0216,-0.0036,0.022,0.0646,0.074,0.0888,0.095,0.0964,0.0963,0.0961,0.0961,0.0917,0.0986,0.0986,0.0985,0.0985,0.0984,0,-0.0673,-0.0671,-0.0668,-0.0635,-0.0618,-0.0563,-0.0492,-0.0456,-0.0403,-0.0231,-0.0156,0.0127,0.0421,0.0626,0.097,0.1088,0.1104,0.0967,0.0997,0.0994,0.099,0.099,0.1024,0.1023,0.1022,0.1021,0,0,-0.0684,-0.0703,-0.0707,-0.0684,-0.0641,-0.0567,-0.0523,-0.047,-0.0329,-0.0235,-0.0008,0.0284,0.0592,0.0778,0.0886,0.0971,0.0921,0.0938,0.0924,0.0946,0.0938,0.1035,0.1037,0,0,0,0,0]}],[{"header":{"parameterUnit":"m.s-1","parameterCategory":2,"la1":30.2991,"la2":30.254,"lo1":-89.0895,"lo2":-89.0444,"dy":0.0017,"dx":0.0017,"nx":28,"ny":28,"refTime":"2023-07-19T09:00:00:Z","depth":"4","parameterNumber":2,"parameterNumberName":"U-component_of_CURRENTS"},"data":[0,0,0,0,0,0,0,0,0,0,0,0,0,0,0,0,0,0,0,0,0,0,0,0,0,0,0,0,0,0,0,0,0,0,0,0,0,0,0,0,0,0,0,0,0,0,0,0,0,0,0,0,0,0,0,0,0,0,-0.1377,-0.1377,0,-0.1408,-0.1408,-0.1409,-0.1446,-0.1447,-0.1448,-0.1448,-0.1526,-0.1528,-0.153,0,0,0,0,0,0,0,0,0,0,0,0,0,-0.1326,-0.1327,-0.1376,-0.1377,-0.1377,-0.1408,-0.1408,-0.1409,-0.1446,-0.1447,-0.1448,-0.1448,-0.1526,-0.1528,-0.153,0,0,0,0,0,0,0,0,0,0,0,0,0,-0.1352,-0.1328,-0.1376,-0.1399,-0.1402,-0.1408,-0.1408,-0.1409,-0.1446,-0.1447,-0.1448,-0.1449,-0.1525,-0.1528,-0.153,-0.1528,0,0,-0.1537,-0.1538,0,0,0,0,0,0,0,0,-0.1351,-0.1354,-0.1396,-0.1398,-0.14,-0.1424,-0.1419,-0.1451,-0.1446,-0.143,-0.1448,-0.1449,-0.1496,-0.15,-0.1504,-0.1532,-0.1535,-0.1537,-0.1539,-0.154,-0.1541,0,0,0,0,0,0,0,-0.1349,-0.1353,-0.1389,-0.1396,-0.1399,-0.14,-0.1405,-0.1425,-0.1459,-0.1431,-0.1434,-0.1437,-0.1497,-0.1502,-0.1507,-0.1536,-0.1537,-0.1539,-0.1541,-0.1542,-0.1622,-0.1623,0,0,0,0,0,0,-0.1345,-0.1351,-0.1388,-0.139,-0.1377,-0.1401,-0.1406,-0.1416,-0.1458,-0.1464,-0.1436,-0.1438,-0.1498,-0.1504,-0.151,-0.1579,-0.154,-0.1542,-0.1543,-0.1621,-0.1622,-0.1623,0,0,0,0,0,0,-0.1344,-0.1348,-0.1387,-0.1371,-0.1376,-0.1401,-0.1411,-0.1416,-0.1443,-0.1461,-0.1469,-0.1461,-0.1498,-0.1506,-0.1549,-0.158,-0.1543,-0.1545,-0.1621,-0.1622,-0.1623,-0.1675,0,0,0,0,0,0,-0.1342,-0.1348,-0.1365,-0.1371,-0.1377,-0.1404,-0.1411,-0.1416,-0.1442,-0.1446,-0.1484,-0.1491,-0.15,-0.1545,-0.1551,-0.1583,-0.1547,-0.162,-0.1621,-0.1622,-0.1672,-0.1677,-0.1682,0,0,0,0,0,-0.1341,-0.1356,-0.1366,-0.1371,-0.1396,-0.1404,-0.1408,-0.1428,-0.1442,-0.1456,-0.1485,-0.1491,-0.1558,-0.1548,-0.1555,-0.1588,-0.1619,-0.1621,-0.1622,-0.167,-0.1676,-0.1682,0,0,0,0,0,0,-0.1341,-0.1362,-0.1372,-0.1394,-0.1405,-0.1411,-0.1429,-0.1439,-0.1472,-0.1485,-0.1503,-0.1512,-0.1559,-0.1562,-0.155,-0.1612,-0.1588,-0.1591,-0.1622,-0.1628,-0.1633,-0.1622,-0.1549,0,0,0,0,0,-0.1349,-0.137,-0.1381,-0.14,-0.1409,-0.1423,-0.1435,-0.1446,-0.1467,-0.1483,-0.1512,-0.154,-0.1565,-0.1589,-0.1607,-0.1645,-0.1628,-0.1668,-0.1673,-0.1677,-0.1671,-0.1678,-0.1684,-0.1628,-0.1628,-0.1628,0,0,-0.1353,-0.1368,-0.138,-0.1402,-0.1416,-0.1432,-0.1434,-0.1455,-0.1478,-0.1487,-0.1541,-0.156,-0.1577,-0.162,-0.1641,-0.1632,-0.1683,-0.1679,-0.1683,-0.1674,-0.1681,-0.1686,-0.1691,-0.163,-0.1629,-0.1629,0,0,-0.136,-0.1388,-0.1405,-0.142,-0.1443,-0.1452,-0.1462,-0.1485,-0.151,-0.1551,-0.1565,-0.1603,-0.1645,-0.1665,-0.1678,-0.172,-0.1705,-0.1729,-0.1755,-0.1763,-0.1768,-0.1771,-0.175,-0.1751,-0.1737,-0.1737,-0.1737,0,-0.1368,-0.1391,-0.1409,-0.1428,-0.1445,-0.1464,-0.1481,-0.1506,-0.1542,-0.1562,-0.1577,-0.164,-0.1665,-0.1706,-0.1726,-0.1733,-0.1721,-0.1735,-0.177,-0.1773,-0.1776,-0.1753,-0.1754,-0.174,-0.1739,-0.1739,-0.1739,0,-0.1379,-0.1408,-0.142,-0.1455,-0.1473,-0.1493,-0.1521,-0.1555,-0.1588,-0.1607,-0.1661,-0.1694,-0.1726,-0.1748,-0.1756,-0.1794,-0.1772,-0.1773,-0.1756,-0.1785,-0.1759,-0.1759,-0.1744,-0.1743,-0.1742,-0.1741,0,0,-0.1364,-0.142,-0.1427,-0.1446,-0.1492,-0.15,-0.155,-0.1585,-0.1609,-0.1663,-0.1692,-0.1757,-0.1769,-0.1783,-0.1802,-0.1821,-0.1841,-0.1812,-0.1811,-0.1791,-0.1837,-0.1671,-0.1655,-0.1852,-0.1853,-0.1853,-0.1807,0,-0.1369,-0.1406,-0.1437,-0.1474,-0.1491,-0.1533,-0.1569,-0.1606,-0.1642,-0.1676,-0.1721,-0.1754,-0.1784,-0.1801,-0.183,-0.1836,-0.1845,-0.1852,-0.181,-0.1808,-0.1658,-0.165,-0.1855,-0.1807,-0.1807,-0.1807,-0.1807,0,-0.1363,-0.139,-0.1429,-0.1478,-0.1491,-0.152,-0.1571,-0.1605,-0.1655,-0.1684,-0.1728,-0.175,-0.1798,-0.1809,-0.1844,-0.1847,-0.1844,-0.1847,-0.1845,-0.1668,-0.1641,-0.1773,-0.1807,-0.1807,-0.1807,-0.1807,-0.1807,0,-0.1322,-0.1381,-0.1414,-0.1433,-0.1493,-0.1523,-0.1556,-0.1607,-0.1626,-0.1681,-0.1688,-0.1751,-0.1761,-0.1797,-0.1811,-0.1831,-0.1818,-0.1843,-0.1686,-0.1674,-0.1818,-0.1814,-0.1848,-0.1848,-0.1848,-0.1848,-0.1849,0,-0.1301,-0.1327,-0.1401,-0.1416,-0.1447,-0.1497,-0.1532,-0.1571,-0.1611,-0.1612,-0.1683,-0.1669,-0.1758,-0.1761,-0.1793,-0.1718,-0.1803,-0.167,-0.1646,-0.1839,-0.1838,-0.1817,-0.1814,-0.1847,-0.1847,-0.1847,-0.1848,0,-0.1242,-0.1299,-0.1335,-0.1407,-0.1429,-0.1447,-0.1505,-0.1515,-0.1566,-0.1564,-0.1576,-0.1605,-0.1582,-0.1639,-0.1664,-0.1648,-0.1629,-0.1581,-0.1754,-0.1745,-0.1487,-0.1488,-0.14,-0.1393,-0.1388,-0.1383,-0.138,0,-0.1211,-0.1227,-0.1312,-0.1328,-0.1365,-0.1405,-0.1421,-0.1485,-0.1486,-0.15,-0.1476,-0.1456,-0.1467,-0.1357,-0.144,-0.1447,-0.1446,-0.1441,-0.1491,-0.1452,-0.144,-0.1449,-0.1456,-0.1371,-0.137,-0.1368,-0.1367,0,-0.1142,-0.119,-0.1223,-0.1256,-0.1285,-0.1301,-0.1331,-0.1318,-0.1366,-0.1425,-0.1322,-0.1286,-0.1225,-0.1228,-0.122,-0.1246,-0.1457,-0.1385,-0.1397,-0.1444,-0.1417,-0.1411,-0.1425,-0.1348,-0.1351,-0.1353,-0.1354,0,-0.1093,-0.1097,-0.1147,-0.1162,-0.1189,-0.1165,-0.1207,-0.1182,-0.1184,-0.1213,-0.1166,-0.115,-0.1179,-0.1116,-0.1126,-0.1112,-0.1115,-0.1134,-0.116,-0.1181,-0.1134,-0.1068,-0.0851,0,0,0,0,0,-0.1031,-0.1026,-0.1039,-0.1039,-0.1057,-0.1064,-0.1119,-0.1162,-0.1216,-0.1103,-0.1129,-0.1065,-0.0999,-0.0996,-0.0938,-0.1048,-0.1143,-0.098,-0.1185,-0.1245,-0.1266,-0.1233,0,0,0,0,0,0,-0.099,-0.1008,-0.1006,-0.0922,-0.089,-0.0886,-0.0915,-0.0963,-0.0914,-0.0975,-0.0936,-0.0989,-0.0941,-0.0987,-0.0899,-0.0907,-0.1018,-0.0992,-0.0989,-0.1232,-0.1252,-0.1269,-0.1243,0,0,0,0,0]},{"header":{"parameterUnit":"m.s-1","parameterCategory":2,"la1":30.2991,"la2":30.254,"lo1":-89.0895,"lo2":-89.0444,"dy":0.0017,"dx":0.0017,"nx":28,"ny":28,"refTime":"2023-07-19T09:00:00:Z","depth":"4","parameterNumber":3,"parameterNumberName":"V-component_of_CURRENTS"},"data":[0,0,0,0,0,0,0,0,0,0,0,0,0,0,0,0,0,0,0,0,0,0,0,0,0,0,0,0,0,0,0,0,0,0,0,0,0,0,0,0,0,0,0,0,0,0,0,0,0,0,0,0,0,0,0,0,0,0,-0.0129,-0.0129,0,-0.0097,-0.0097,-0.0097,-0.0068,-0.0068,-0.0067,-0.0067,-0.0007,-0.0006,-0.0005,0,0,0,0,0,0,0,0,0,0,0,0,0,-0.0144,-0.0145,-0.013,-0.0129,-0.0128,-0.0097,-0.0097,-0.0097,-0.0068,-0.0068,-0.0067,-0.0067,-0.0008,-0.0006,-0.0005,0,0,0,0,0,0,0,0,0,0,0,0,0,-0.013,-0.0145,-0.013,-0.0109,-0.0107,-0.0097,-0.0097,-0.0097,-0.0069,-0.0068,-0.0067,-0.0066,-0.0008,-0.0006,-0.0005,-0.001,0,0,0.0,0.0001,0,0,0,0,0,0,0,0,-0.013,-0.0129,-0.0113,-0.011,-0.0108,-0.0084,-0.008,-0.0066,-0.0069,-0.0085,-0.0067,-0.0066,-0.003,-0.0026,-0.0025,-0.0007,-0.0004,0.0,0.0001,0.0002,0.0003,0,0,0,0,0,0,0,-0.0132,-0.013,-0.0119,-0.0112,-0.0109,-0.0094,-0.0091,-0.0078,-0.0063,-0.0084,-0.0081,-0.0075,-0.0028,-0.0027,-0.0023,-0.0003,0.0,0.0002,0.0003,0.0004,0.0019,0.0018,0,0,0,0,0,0,-0.0134,-0.0132,-0.012,-0.0117,-0.0115,-0.0094,-0.0091,-0.0094,-0.0064,-0.0058,-0.0075,-0.0073,-0.003,-0.0025,-0.0021,-0.0021,0.0002,0.0004,0.0005,0.0019,0.0018,0.0018,0,0,0,0,0,0,-0.0135,-0.0134,-0.0121,-0.0122,-0.0119,-0.0095,-0.0098,-0.0094,-0.0092,-0.0057,-0.0051,-0.0077,-0.0029,-0.0023,-0.0015,-0.0018,0.0005,0.0006,0.002,0.0019,0.0018,-0.0022,0,0,0,0,0,0,-0.0135,-0.0134,-0.0141,-0.0122,-0.0119,-0.012,-0.0098,-0.0094,-0.0088,-0.0085,-0.0057,-0.005,-0.0028,-0.0018,-0.0013,-0.0015,0.0007,0.0021,0.0019,0.0018,-0.002,-0.0024,-0.0028,0,0,0,0,0,-0.0136,-0.0148,-0.0142,-0.0141,-0.0128,-0.0121,-0.0118,-0.0099,-0.0089,-0.0094,-0.0075,-0.0051,-0.0021,-0.0017,-0.0012,-0.0013,0.0021,0.002,0.0018,-0.0018,-0.0024,-0.0028,0,0,0,0,0,0,-0.0158,-0.0146,-0.0139,-0.0147,-0.0136,-0.0115,-0.0117,-0.0105,-0.0095,-0.0093,-0.0061,-0.0054,-0.0046,-0.0029,-0.0025,-0.0013,0.0005,0.0004,-0.0025,-0.003,-0.0034,-0.0045,0.0009,0,0,0,0,0,-0.0167,-0.0174,-0.0157,-0.0164,-0.0161,-0.0141,-0.0137,-0.0125,-0.0111,-0.0106,-0.0085,-0.0065,-0.0049,-0.0039,-0.0024,-0.002,0.001,-0.0018,-0.0022,-0.0025,-0.0032,0.0009,0.0009,0.0013,0.0013,0.0013,0,0,-0.0178,-0.0171,-0.0175,-0.0169,-0.016,-0.0168,-0.0138,-0.0136,-0.0142,-0.0101,-0.0105,-0.0079,-0.0052,-0.0046,-0.0041,-0.0031,-0.0011,-0.0027,-0.003,-0.0035,0.0008,0.0008,0.0007,0.0012,0.0013,0.0013,0,0,-0.02,-0.0197,-0.021,-0.0207,-0.0197,-0.0189,-0.019,-0.0174,-0.0167,-0.0167,-0.0137,-0.0115,-0.0097,-0.0073,-0.006,-0.0078,-0.0034,-0.0073,-0.0099,-0.0059,-0.0059,-0.0059,-0.0018,-0.0013,-0.0073,-0.0073,-0.0074,0,-0.0213,-0.0229,-0.0212,-0.0224,-0.0229,-0.0202,-0.0221,-0.0212,-0.0195,-0.0193,-0.0175,-0.0141,-0.011,-0.0098,-0.0099,-0.0086,-0.0056,-0.0082,-0.0064,-0.0062,-0.0061,-0.0019,-0.0014,-0.0076,-0.0075,-0.0075,-0.0075,0,-0.0243,-0.026,-0.0268,-0.0278,-0.0281,-0.0293,-0.028,-0.0282,-0.0268,-0.0253,-0.0238,-0.0195,-0.0175,-0.0156,-0.013,-0.0109,-0.0088,-0.0073,-0.005,-0.0064,-0.0019,-0.0012,-0.0079,-0.0078,-0.0077,-0.0077,0,0,-0.0262,-0.0286,-0.0289,-0.031,-0.0314,-0.0322,-0.0337,-0.034,-0.0352,-0.0319,-0.0327,-0.0276,-0.0246,-0.0229,-0.0188,-0.0144,-0.0097,-0.0106,-0.0103,-0.0063,-0.0006,0.0042,0.0054,-0.0075,-0.0075,-0.0074,0.0024,0,-0.0293,-0.0333,-0.0335,-0.0381,-0.0404,-0.0396,-0.0415,-0.0413,-0.0401,-0.0402,-0.0346,-0.0335,-0.0277,-0.0265,-0.0213,-0.0138,-0.0083,-0.0125,-0.0001,0.0003,0.0049,0.0062,-0.0072,0.0029,0.003,0.0032,0.0032,0,-0.0322,-0.0348,-0.0398,-0.0442,-0.0452,-0.0477,-0.0508,-0.0517,-0.0505,-0.0492,-0.0464,-0.0426,-0.037,-0.0314,-0.0182,-0.0213,-0.0111,-0.0038,-0.0033,0.0029,0.0063,0.0045,0.0045,0.0044,0.0043,0.0042,0.0041,0,-0.0347,-0.0393,-0.0439,-0.0454,-0.0495,-0.0523,-0.0542,-0.0547,-0.056,-0.055,-0.0555,-0.0488,-0.046,-0.0336,-0.0184,-0.0184,-0.0027,-0.0012,0.0132,0.0136,0.0081,0.008,0.01,0.01,0.01,0.0099,0.0099,0,-0.0381,-0.042,-0.046,-0.049,-0.0551,-0.0561,-0.0615,-0.0623,-0.0632,-0.0646,-0.0602,-0.0589,-0.0462,-0.0361,-0.021,-0.002,-0.0044,0.0133,0.0167,0.0062,0.0057,0.0087,0.0084,0.0103,0.0102,0.0102,0.0101,0,-0.0407,-0.043,-0.0492,-0.0548,-0.0569,-0.0613,-0.0667,-0.0698,-0.0699,-0.0719,-0.0719,-0.0667,-0.053,-0.0379,-0.018,-0.0058,0.0122,0.0205,0.008,0.0105,0.0264,0.0258,0.0358,0.036,0.0362,0.0364,0.0366,0,-0.0425,-0.0458,-0.0536,-0.0579,-0.0612,-0.0671,-0.0712,-0.073,-0.075,-0.0748,-0.0752,-0.0661,-0.0593,-0.0289,-0.0127,0.015,0.0206,0.0284,0.0281,0.0268,0.0292,0.0282,0.0273,0.0369,0.037,0.037,0.0371,0,-0.0462,-0.049,-0.054,-0.0625,-0.0684,-0.0746,-0.0795,-0.0808,-0.0815,-0.0823,-0.075,-0.0616,-0.0464,-0.026,-0.0048,0.0155,0.0215,0.0308,0.0305,0.0303,0.0284,0.0302,0.0291,0.0378,0.0377,0.0377,0.0376,0,-0.0488,-0.053,-0.0593,-0.0665,-0.0741,-0.0795,-0.082,-0.0817,-0.0824,-0.0793,-0.0764,-0.0609,-0.0531,-0.0253,-0.0053,0.0139,0.0195,0.0255,0.0256,0.0249,0.0193,0.0151,0.024,0,0,0,0,0,-0.0507,-0.0553,-0.0628,-0.0709,-0.0782,-0.0819,-0.0864,-0.0872,-0.0865,-0.0803,-0.0773,-0.0613,-0.0336,-0.0237,-0.0029,-0.0016,0.0214,0.0233,0.028,0.042,0.0411,0.0368,0,0,0,0,0,0,-0.0525,-0.059,-0.0627,-0.0722,-0.0777,-0.0853,-0.0877,-0.0877,-0.0821,-0.0791,-0.064,-0.056,-0.0291,-0.0451,-0.0027,0.0026,0.0087,0.0359,0.0364,0.0425,0.0417,0.041,0.0363,0,0,0,0,0]}]]